Wind_Speed
23 24 23 23 23 23 22 22 23 23 23 24 24 25 25 25 25 26 27 27 27 27 26 25 25 25 24 24 25 25 26 25 24 24 24 23 23 23 24 24 25 26 25
24 24 24 24 24 23 23 24 25 25 25 25 25 26 26 27 27 27 28 28 27 27 27 27 27 26 25 24 24 25 26 26 26 25 25 24 24 23 23 24 25 26 27
24 25 25 25 25 24 24 25 26 26 26 27 27 27 27 28 28 28 29 29 28 27 27 27 27 27 26 25 25 25 26 26 26 27 26 25 24 24 24 23 25 26 27
26 25 26 26 26 26 26 26 27 27 28 28 28 28 28 29 29 29 29 29 29 28 28 27 27 27 27 27 26 26 27 27 27 27 27 26 25 25 26 25 25 26 27
27 27 26 27 27 26 27 27 28 29 28 28 28 28 29 29 29 29 29 29 29 29 29 28 28 28 28 27 27 26 27 28 28 28 28 28 26 26 26 26 26 26 26
27 27 28 27 27 27 27 27 28 28 28 29 29 28 28 28 29 29 29 29 29 30 29 29 29 29 29 28 28 27 28 28 29 29 29 29 28 28 27 27 27 27 27
28 28 29 28 28 28 28 29 29 29 29 29 28 28 28 27 28 28 29 29 29 29 29 29 30 29 29 29 29 28 28 28 29 29 29 30 29 29 28 28 28 27 28
29 29 28 28 28 29 29 30 29 29 29 29 29 29 28 27 27 28 29 29 28 28 28 28 29 29 30 29 28 28 28 30 30 30 30 30 30 29 29 29 28 28 27
27 28 27 28 29 30 29 29 28 28 28 28 28 28 28 27 27 27 28 29 29 29 29 29 29 28 28 29 29 28 28 29 29 29 30 31 31 30 29 29 28 28 28
27 27 27 28 29 28 28 28 28 27 26 26 26 27 27 26 25 25 26 27 27 28 28 29 28 27 27 27 29 29 29 30 29 29 30 30 31 31 30 30 29 29 29
26 27 27 27 27 26 27 27 27 26 25 25 25 25 24 24 24 24 24 25 25 26 26 27 27 28 27 27 27 28 29 30 30 30 30 30 30 30 30 29 29 29 29
26 26 25 25 25 25 25 25 24 24 23 22 23 23 23 22 22 22 22 23 24 24 25 25 26 27 27 27 27 28 28 29 29 29 29 30 29 30 30 29 29 29 29
25 25 25 25 24 25 24 23 23 22 21 20 20 20 20 20 20 21 22 22 23 23 24 25 25 25 26 27 27 28 29 29 29 29 29 29 29 30 30 29 28 28 28
25 24 24 24 24 23 23 22 21 20 19 19 18 18 17 18 18 19 19 19 20 21 22 23 24 24 25 26 26 27 29 29 28 29 30 30 29 30 30 30 29 28 28
23 23 23 23 22 22 22 21 20 20 19 18 17 16 16 17 17 17 17 18 18 19 20 20 21 23 24 24 25 26 27 27 27 28 29 29 30 30 31 31 31 30 29
22 21 20 20 20 21 20 20 19 18 17 16 16 16 16 16 16 16 16 17 17 17 17 18 19 21 21 22 23 23 24 25 27 27 27 28 29 30 30 30 30 30 29
20 20 19 19 19 19 19 18 18 16 16 15 15 15 14 14 14 14 14 14 15 16 16 16 17 18 19 20 22 22 23 25 26 26 26 26 27 28 29 30 29 30 30
19 19 18 17 17 17 17 17 16 15 14 14 13 13 12 12 12 13 13 14 14 14 14 15 15 16 17 18 18 20 21 22 22 23 24 25 26 26 28 29 29 29 30
17 17 17 17 17 16 16 15 14 13 13 13 13 12 12 12 12 12 12 13 13 13 13 13 14 14 15 15 16 18 18 19 20 21 22 23 24 25 26 27 28 29 30
15 15 15 16 16 14 14 14 13 12 12 13 12 12 11 11 11 11 11 11 12 12 12 12 13 13 13 14 15 17 18 19 20 20 22 23 24 24 25 26 28 29 29
15 15 15 15 14 13 13 12 12 12 12 12 11 11 11 10 11 11 10 10 10 10 10 11 11 11 12 13 14 15 16 17 18 19 21 22 23 23 24 25 26 27 28
13 14 14 14 13 13 13 12 12 12 12 11 11 10 10 10 10 10 10 10 11 11 11 11 11 10 10 10 11 14 15 16 17 18 20 20 20 21 21 23 24 24 25
12 12 12 12 12 12 12 12 11 11 11 11 11 10 11 10 10 10 10 10 11 11 11 11 11 11 10 10 10 12 13 15 16 17 17 18 19 19 19 20 21 22 23
12 12 12 11 11 12 12 12 11 10 10 10 10 10 10 10 10 9 10 11 11 11 10 10 10 11 10 10 10 11 12 13 14 15 16 16 17 17 18 19 19 20 21
12 12 11 11 12 12 11 11 11 10 9 9 9 9 9 10 10 10 10 10 10 10 10 10 10 10 11 11 11 11 11 12 13 13 14 14 14 15 16 16 18 19 20
11 12 11 11 11 12 12 11 10 9 8 8 8 9 9 8 8 8 8 9 9 9 10 10 10 11 11 10 11 10 11 11 12 12 12 13 14 14 14 15 16 17 19
Wind_Direction
291 290 288 287 288 286 284 282 283 282 281 281 281 278 273 272 272 271 269 266 265 265 262 262 261 260 261 260 256 253 251 251 250 250 249 248 247 248 246 245 243 242 242
291 290 287 285 285 286 283 282 282 281 280 281 281 280 276 272 272 270 269 266 263 263 262 260 259 259 259 257 254 252 250 249 249 249 248 247 248 249 247 247 246 244 242
292 291 288 286 285 285 283 282 281 280 278 280 280 279 277 272 270 268 268 265 264 262 261 260 259 256 257 257 253 250 249 248 248 249 248 249 247 247 246 248 247 243 243
294 291 289 288 287 284 284 284 283 281 279 279 278 278 275 272 270 268 267 264 263 262 260 260 258 255 256 255 253 251 248 248 247 248 247 247 246 246 246 247 246 243 243
295 291 290 290 289 286 286 286 285 282 280 279 278 277 275 273 271 269 267 264 262 261 260 259 258 256 255 253 251 251 248 247 247 247 247 247 246 247 247 247 245 243 244
294 292 290 290 290 290 288 287 287 284 281 278 278 278 277 274 272 268 266 264 263 262 260 259 258 256 254 253 251 251 248 246 246 246 247 247 245 245 247 246 245 244 245
293 293 292 290 291 291 290 288 287 285 283 279 276 277 277 275 270 268 265 264 263 261 259 258 255 254 254 253 250 250 249 247 246 245 246 245 245 245 245 245 243 245 246
294 294 294 291 291 291 291 290 289 286 284 280 275 275 275 273 271 269 266 263 262 260 257 256 254 252 251 251 251 250 250 248 246 246 246 245 244 245 246 244 244 244 245
294 293 293 293 292 292 291 291 291 288 284 281 277 275 274 272 269 268 266 263 262 260 258 256 254 251 251 250 250 250 248 246 245 245 246 246 244 244 244 244 244 245 244
294 295 295 295 294 293 293 293 292 289 286 283 280 277 273 270 267 266 266 263 261 261 260 256 253 252 252 251 250 248 246 245 244 245 245 245 243 244 244 244 246 244 244
295 295 296 296 297 295 294 294 294 292 290 285 283 280 275 272 268 265 264 263 262 261 260 258 255 252 252 252 251 248 246 244 243 243 243 242 242 242 242 244 244 244 243
298 296 297 297 298 297 296 295 295 295 291 287 285 280 276 274 270 267 265 263 264 263 260 258 257 254 255 255 252 249 246 245 245 242 242 241 239 239 241 243 243 243 242
302 300 299 298 297 295 294 295 294 295 292 290 287 283 278 275 272 269 268 266 264 263 262 261 259 257 255 255 252 248 246 246 246 243 242 241 241 241 241 243 242 242 242
301 301 301 300 299 297 294 293 294 294 292 290 290 286 281 277 275 272 271 266 263 261 262 263 263 260 257 256 254 250 247 246 245 243 242 242 241 240 240 241 241 242 243
301 302 301 300 300 297 295 294 294 294 291 291 292 290 285 281 278 274 271 269 266 265 265 265 262 259 257 254 252 250 246 243 243 243 242 242 241 239 238 239 240 242 243
302 303 303 302 301 300 297 296 296 294 290 291 293 292 289 285 279 277 274 273 271 269 270 266 263 259 256 254 250 248 245 242 241 242 243 243 241 240 238 239 238 239 240
302 304 306 306 304 300 298 297 297 295 292 292 292 292 287 283 280 278 277 276 273 271 269 265 264 260 257 255 252 248 243 240 240 240 242 243 243 241 238 238 239 239 240
306 308 309 309 307 305 305 302 297 295 294 296 294 291 286 283 282 279 277 275 277 274 269 267 263 261 259 257 253 246 239 236 238 240 242 242 243 242 241 240 241 241 242
311 309 309 307 307 307 306 305 300 299 299 299 296 292 289 287 283 282 281 278 276 275 270 266 262 262 260 257 253 246 240 239 241 242 243 243 245 244 242 242 243 243 244
313 311 311 307 306 307 306 306 302 300 300 300 297 296 292 286 284 285 283 280 276 274 271 266 264 263 261 256 252 246 242 243 243 242 244 245 245 245 245 245 244 244 245
315 315 313 313 309 308 310 309 308 305 307 305 302 299 294 288 284 283 283 280 278 277 274 270 266 262 262 259 255 249 245 245 247 247 248 247 245 245 246 248 247 246 246
321 318 317 314 309 309 309 307 310 308 307 306 304 302 295 287 283 282 282 279 276 275 272 272 268 266 267 262 256 248 247 248 250 250 250 248 246 245 246 248 248 248 247
327 325 323 320 314 312 314 314 313 311 311 311 306 300 297 289 286 280 281 281 279 277 275 272 266 264 267 268 262 255 253 253 252 252 251 250 250 248 248 250 248 247 247
333 332 332 332 333 328 324 323 321 316 313 310 309 306 301 296 294 288 286 284 282 281 278 274 270 271 270 272 262 257 259 258 256 256 255 253 252 251 252 253 251 249 248
336 337 338 338 339 338 334 330 328 321 316 313 313 315 311 305 302 298 291 286 282 278 278 277 273 273 272 270 268 264 263 262 257 257 255 253 251 253 253 253 252 251 251
340 341 341 339 340 343 344 341 336 333 329 325 322 319 318 314 310 307 304 297 287 281 281 281 280 277 276 271 267 266 267 265 259 257 257 255 254 255 256 255 254 252 252
Height
5854 5852 5851 5849 5847 5846 5844 5842 5841 5840 5838 5837 5835 5833 5832 5831 5830 5829 5829 5829 5829 5829 5829 5830 5830 5831 5831 5831 5832 5833 5834 5836 5837 5838 5839 5841 5842 5843 5845 5846 5848 5849 5851
5848 5846 5845 5843 5841 5839 5837 5836 5834 5833 5832 5830 5829 5827 5825 5824 5823 5822 5822 5822 5822 5822 5822 5823 5823 5824 5825 5825 5826 5827 5828 5830 5831 5833 5834 5835 5837 5838 5840 5841 5842 5844 5846
5842 5840 5838 5836 5834 5832 5830 5829 5827 5825 5824 5823 5821 5820 5819 5817 5816 5815 5815 5815 5815 5815 5815 5816 5816 5817 5818 5819 5819 5820 5822 5824 5825 5827 5828 5830 5831 5833 5834 5835 5837 5838 5840
5835 5833 5831 5829 5827 5825 5823 5821 5820 5818 5817 5815 5814 5812 5811 5809 5808 5808 5807 5807 5807 5808 5808 5808 5809 5810 5811 5812 5813 5814 5816 5817 5819 5821 5822 5824 5825 5827 5828 5830 5831 5833 5835
5829 5826 5824 5822 5820 5818 5816 5814 5812 5810 5809 5807 5806 5804 5802 5801 5800 5800 5799 5799 5799 5800 5800 5801 5801 5802 5803 5805 5806 5807 5809 5811 5812 5814 5816 5818 5819 5821 5822 5824 5825 5827 5829
5822 5819 5817 5815 5813 5810 5808 5806 5804 5802 5800 5799 5797 5796 5794 5793 5792 5792 5791 5792 5792 5792 5792 5793 5794 5794 5796 5797 5799 5800 5802 5804 5805 5807 5809 5811 5813 5815 5816 5818 5820 5821 5823
5815 5812 5810 5807 5805 5802 5800 5798 5796 5794 5792 5790 5789 5787 5786 5784 5784 5783 5783 5783 5784 5784 5784 5785 5786 5787 5788 5789 5791 5792 5794 5796 5798 5800 5802 5804 5806 5808 5810 5811 5813 5815 5816
5807 5804 5802 5799 5797 5794 5792 5790 5787 5785 5783 5781 5780 5779 5778 5777 5775 5775 5775 5775 5775 5776 5776 5777 5777 5779 5780 5782 5783 5785 5787 5788 5791 5793 5795 5797 5799 5801 5803 5804 5806 5808 5810
5800 5797 5794 5791 5789 5786 5783 5781 5779 5777 5775 5773 5771 5770 5769 5768 5767 5767 5767 5767 5767 5768 5768 5769 5769 5770 5772 5773 5775 5777 5779 5780 5783 5785 5787 5789 5791 5793 5795 5797 5799 5801 5803
5793 5790 5787 5784 5781 5778 5775 5773 5771 5769 5766 5764 5763 5761 5760 5760 5760 5760 5759 5759 5759 5759 5760 5761 5761 5762 5764 5765 5767 5769 5771 5773 5775 5777 5780 5782 5784 5786 5788 5790 5792 5794 5796
5786 5783 5780 5776 5773 5771 5768 5766 5763 5761 5759 5757 5755 5754 5753 5752 5752 5752 5752 5751 5751 5752 5752 5753 5753 5754 5756 5757 5759 5761 5763 5765 5767 5770 5772 5774 5776 5778 5780 5782 5784 5786 5788
5780 5776 5773 5770 5767 5764 5761 5759 5756 5754 5752 5750 5748 5747 5746 5745 5745 5745 5745 5744 5744 5744 5745 5745 5746 5747 5748 5749 5751 5753 5755 5757 5759 5761 5764 5766 5768 5770 5772 5774 5776 5779 5781
5773 5770 5767 5764 5760 5758 5755 5752 5750 5748 5746 5744 5742 5740 5739 5738 5738 5738 5738 5738 5738 5738 5738 5738 5738 5739 5740 5742 5743 5745 5747 5749 5751 5753 5756 5758 5760 5763 5765 5767 5769 5771 5773
5767 5764 5760 5757 5754 5751 5749 5746 5744 5742 5740 5738 5736 5735 5734 5733 5732 5732 5732 5732 5732 5732 5732 5732 5731 5732 5733 5734 5735 5736 5739 5741 5743 5746 5748 5750 5752 5755 5757 5759 5762 5764 5766
5760 5757 5754 5751 5748 5745 5743 5741 5739 5737 5735 5733 5731 5730 5728 5727 5727 5726 5726 5726 5726 5726 5726 5725 5725 5725 5726 5727 5728 5729 5731 5733 5736 5738 5740 5742 5744 5746 5749 5751 5754 5756 5758
5754 5751 5748 5746 5743 5740 5737 5735 5733 5731 5730 5728 5727 5725 5724 5723 5722 5721 5721 5720 5720 5720 5720 5719 5719 5719 5719 5720 5721 5722 5725 5727 5729 5731 5733 5735 5736 5738 5741 5743 5746 5748 5751
5749 5746 5743 5741 5738 5735 5732 5730 5728 5726 5725 5723 5722 5721 5720 5719 5718 5717 5716 5716 5715 5715 5715 5714 5713 5713 5714 5714 5715 5716 5718 5720 5722 5724 5726 5728 5729 5731 5733 5736 5738 5741 5743
5744 5741 5739 5736 5733 5730 5728 5725 5723 5722 5720 5719 5718 5717 5716 5715 5714 5713 5712 5712 5711 5710 5710 5709 5709 5709 5709 5709 5709 5711 5712 5714 5716 5718 5719 5721 5722 5724 5726 5728 5730 5733 5735
5740 5737 5734 5732 5729 5726 5724 5722 5720 5718 5717 5715 5714 5713 5712 5711 5710 5709 5709 5708 5707 5706 5706 5705 5705 5704 5704 5704 5705 5706 5707 5709 5710 5711 5712 5714 5715 5717 5719 5721 5723 5725 5727
5736 5734 5731 5728 5726 5723 5721 5719 5717 5715 5713 5712 5710 5709 5708 5707 5707 5706 5705 5704 5703 5703 5702 5702 5701 5701 5700 5700 5700 5701 5702 5703 5704 5705 5707 5708 5709 5710 5712 5713 5715 5717 5719
5733 5730 5728 5725 5723 5720 5718 5716 5714 5712 5711 5709 5707 5706 5705 5704 5703 5703 5702 5701 5700 5699 5699 5698 5697 5697 5696 5696 5696 5697 5698 5699 5699 5700 5701 5702 5703 5704 5705 5707 5708 5710 5711
5731 5728 5725 5723 5720 5718 5715 5713 5712 5710 5708 5706 5705 5703 5702 5701 5700 5699 5699 5698 5697 5697 5696 5695 5694 5694 5693 5693 5692 5693 5693 5694 5695 5696 5696 5696 5697 5698 5699 5700 5701 5703 5704
5729 5726 5723 5721 5718 5716 5714 5711 5709 5707 5705 5704 5702 5700 5699 5698 5697 5696 5695 5695 5694 5693 5693 5692 5691 5691 5690 5690 5690 5689 5689 5690 5690 5691 5691 5692 5692 5693 5694 5694 5695 5696 5698
5728 5725 5722 5719 5717 5714 5712 5709 5707 5704 5703 5701 5699 5698 5697 5695 5694 5693 5693 5692 5691 5690 5689 5688 5688 5688 5687 5687 5687 5686 5686 5686 5687 5687 5687 5687 5687 5688 5689 5689 5690 5691 5692
5727 5724 5721 5718 5715 5713 5710 5707 5705 5702 5700 5699 5697 5696 5695 5693 5692 5691 5690 5689 5688 5687 5687 5686 5685 5685 5684 5684 5683 5683 5683 5683 5683 5683 5683 5683 5683 5684 5684 5685 5685 5685 5686
5726 5723 5720 5717 5714 5711 5708 5706 5703 5701 5699 5697 5696 5694 5693 5691 5690 5689 5687 5686 5685 5685 5684 5683 5683 5682 5681 5681 5681 5680 5680 5680 5679 5679 5679 5679 5679 5680 5680 5680 5680 5680 5681